Location: Chippewa Lake
(41.0698°N, 81.9010°W)
Time: 00:00:04
(UTC+00:00)

X-37B - Pass Details

Date: 09 May 2021
Orbit: 386 x 389 km, 45.0° (Epoch: 23 June)

Event Time Altitude Azimuth Distance (km) Brightness Sun altitude
Rises 01:49:26 0° 284° (WNW) 2,272 5.8 -13.3°
Reaches altitude 10° 01:51:36 10° 292° (WNW) 1,417 4.7 -13.6°
Maximum altitude 01:54:37 39° 3° (N) 603 1.8 -14.1°
Enters shadow 01:57:01 14° 70° (ENE) 1,182 2.7 -14.4°
